Location: Unspecified
(32.4896°N, 0.0000°E)
Time: 01:28:29
(UTC+00:00)

Gurwin Techsat 1B - Visible Passes

Search period start: 04 April 2026 00:00
Search period end: 14 April 2026 00:00
Orbit: 809 x 812 km, 99.0° (Epoch: 28 March)

Date Brightness Start Highest point End Pass type
(mag) Time Alt. Az. Time Alt. Az. Time Alt. Az.
4 Apr 9.8 04:39:02 10° NNE 04:44:07 45° E 04:49:09 10° S visible
5 Apr 10.8 04:16:03 10° NE 04:20:26 26° E 04:24:49 10° SSE visible
6 Apr 11.4 03:53:46 10° ENE 03:56:41 15° E 03:59:36 10° SE visible
7 Apr 8.7 05:07:55 10° NNE 05:13:15 89° ESE 05:18:33 10° SSW visible
8 Apr 9.6 04:44:30 10° NNE 04:49:40 51° E 04:54:48 10° S visible
9 Apr 10.6 04:21:25 10° NE 04:26:00 29° E 04:30:33 10° SSE visible
10 Apr 11.3 03:58:56 10° NE 04:02:16 17° E 04:05:35 10° SE visible
12 Apr 9.3 04:49:58 10° NNE 04:55:12 58° ESE 05:00:24 10° S visible
13 Apr 10.4 04:26:49 10° NE 04:31:34 33° E 04:36:16 10° SSE visible
